Tracking 28790 objects as of 19-Apr-2024
HD Live streaming from Space Station
objects crossing your sky now

FENGYUN 1C DEB

Track FENGYUN 1C DEB now!
10-day predictions


NORAD ID: 31848
Int'l Code: 1999-025CJN
Perigee: 535.0 km
Apogee: 663.2 km
Inclination: 96.7 °
Period: 96.5 minutes
Semi major axis: 6970 km
RCS: 0.0179 m2 (small)
Launch date: May 10, 1999
Source: People's Republic of China (PRC)
Launch site: Taiyaun Space Center, China (TSC)

Note: This is SATELLITE DEBRIS
Your satellite tracking list
Your tracking list is empty




NASA's NSSDC Master Catalog

Two Line Element Set (TLE):
1 31848U 99025CJN 24109.45525603  .00047794  00000-0  43350-2 0  9993
2 31848  96.6914 112.0858 0091909 352.0872   7.8894 14.91916696901032
Source of the keplerian elements: AFSPC